SQ5DCP-1 Weather Reports


Display with metric or nautical units.
time (UTC)temp
F
wind
direction
speed
MPH
gust
MPH
rain 1hr
in
rain 24hr
in
rain mn
in
humidity
%
barometer
mb
20171218143100 30 292 3.0 0.0 0.00 0.00 0.00 86 1018.4
20171218142600 31 270 6.0 0.0 0.00 0.00 0.00 86 1018.3
20171218142059 31 337 1.0 0.0 0.00 0.00 0.00 86 1018.2
20171218141600 31 0 1.0 0.0 0.00 0.00 0.00 86 1018.2
20171218141100 31 270 3.0 0.0 0.00 0.00 0.00 86 1018.1
20171218140600 31 270 2.0 0.0 0.00 0.00 0.00 86 1018.1
20171218140100 31 247 1.0 0.0 0.00 0.00 0.00 86 1018.1
20171218135600 31 315 2.0 0.0 0.00 0.00 0.00 86 1018.1
20171218135100 31 337 3.0 0.0 0.00 0.00 0.00 86 1018.1
20171218134600 31 247 3.0 0.0 0.00 0.00 0.00 85 1018.1
20171218134100 31 247 4.0 0.0 0.00 0.00 0.00 85 1018.0
20171218133600 31 292 3.0 0.0 0.00 0.00 0.00 85 1018.0
20171218133100 31 315 2.0 0.0 0.00 0.00 0.00 85 1017.9
20171218132600 31 22 0.0 0.0 0.00 0.00 0.00 85 1017.9
20171218132100 31 292 2.0 0.0 0.00 0.00 0.00 85 1018.0
20171218131600 31 270 1.0 0.0 0.00 0.00 0.00 85 1017.8
20171218131100 31 315 2.0 0.0 0.00 0.00 0.00 85 1017.8
20171218130600 31 315 2.0 0.0 0.00 0.00 0.00 85 1017.9
20171218130100 31 247 0.0 0.0 0.00 0.00 0.00 85 1017.7
20171218125600 31 270 3.0 0.0 0.00 0.00 0.00 85 1017.6
20171218125100 31 247 1.0 0.0 0.00 0.00 0.00 85 1017.6
20171218124600 31 270 3.0 0.0 0.00 0.00 0.00 85 1017.6
20171218124100 31 315 2.0 0.0 0.00 0.00 0.00 85 1017.6
20171218123600 31 292 5.0 0.0 0.00 0.00 0.00 85 1017.6
20171218123100 31 247 1.0 0.0 0.00 0.00 0.00 85 1017.6
20171218122600 31 270 2.0 0.0 0.00 0.00 0.00 85 1017.6
20171218122100 31 270 2.0 0.0 0.00 0.00 0.00 85 1017.7
20171218121600 31 315 1.0 0.0 0.00 0.00 0.00 85 1017.6
20171218121100 31 270 2.0 0.0 0.00 0.00 0.00 85 1017.6
20171218120600 31 292 1.0 0.0 0.00 0.00 0.00 85 1017.6
20171218120101 31 247 2.0 0.0 0.00 0.00 0.00 85 1017.6
20171218115601 31 292 2.0 0.0 0.00 0.00 0.00 85 1017.4
20171218115100 31 270 1.0 0.0 0.00 0.00 0.00 85 1017.5
20171218114601 31 270 2.0 0.0 0.00 0.00 0.00 85 1017.6
20171218114100 31 270 2.0 0.0 0.00 0.00 0.00 85 1017.6
20171218113600 31 315 0.0 0.0 0.00 0.00 0.00 85 1017.7
20171218113100 31 315 1.0 0.0 0.00 0.00 0.00 85 1017.6
20171218112601 31 225 0.0 0.0 0.00 0.00 0.00 85 1017.6
20171218112100 31 315 1.0 0.0 0.00 0.00 0.00 85 1017.5
20171218111600 31 315 0.0 0.0 0.00 0.00 0.00 85 1017.6
20171218111100 31 247 0.0 0.0 0.00 0.00 0.00 85 1017.6
20171218110600 31 292 1.0 0.0 0.00 0.00 0.00 85 1017.6
20171218110100 31 270 0.0 0.0 0.00 0.00 0.00 85 1017.7
20171218105600 30 292 0.0 0.0 0.00 0.00 0.00 85 1017.8
20171218105100 30 270 0.0 0.0 0.00 0.00 0.00 85 1017.8
20171218104600 30 247 1.0 0.0 0.00 0.00 0.00 85 1017.7
20171218103601 30 270 0.0 0.0 0.00 0.00 0.00 85 1017.8
20171218103101 30 315 2.0 0.0 0.00 0.00 0.00 85 1017.8
20171218102601 30 270 1.0 0.0 0.00 0.00 0.00 85 1017.8
20171218102100 30 292 0.0 0.0 0.00 0.00 0.00 85 1017.8
20171218101601 30 270 0.0 0.0 0.00 0.00 0.00 86 1017.8
20171218101100 30 292 1.0 0.0 0.00 0.00 0.00 86 1017.8
20171218100600 29 292 0.0 0.0 0.00 0.00 0.00 86 1017.7
20171218100100 29 292 0.0 0.0 0.00 0.00 0.00 86 1017.7
20171218095601 29 292 0.0 0.0 0.00 0.00 0.00 86 1017.7
20171218095101 29 292 0.0 0.0 0.00 0.00 0.00 86 1017.8
20171218094600 29 270 1.0 0.0 0.00 0.00 0.00 86 1017.8
20171218094100 29 315 1.0 0.0 0.00 0.00 0.00 86 1017.8
20171218093600 29 270 0.0 0.0 0.00 0.00 0.00 86 1017.7
20171218093100 29 270 1.0 0.0 0.00 0.00 0.00 86 1017.7
20171218092600 29 292 1.0 0.0 0.00 0.00 0.00 86 1017.7
20171218092101 29 270 3.0 0.0 0.00 0.00 0.00 86 1017.7
20171218091601 29 247 1.0 0.0 0.00 0.00 0.00 86 1017.8
20171218091101 29 270 0.0 0.0 0.00 0.00 0.00 86 1017.7
20171218090601 29 270 1.0 0.0 0.00 0.00 0.00 86 1017.7
20171218090101 29 270 1.0 0.0 0.00 0.00 0.00 86 1017.6
20171218085601 29 292 0.0 0.0 0.00 0.00 0.00 86 1017.6
20171218085101 29 270 1.0 0.0 0.00 0.00 0.00 86 1017.6
20171218084601 28 270 1.0 0.0 0.00 0.00 0.00 86 1017.6
20171218084101 28 270 1.0 0.0 0.00 0.00 0.00 86 1017.6
20171218083601 28 292 1.0 0.0 0.00 0.00 0.00 86 1017.6
20171218083101 28 270 1.0 0.0 0.00 0.00 0.00 86 1017.5
20171218082601 28 270 2.0 0.0 0.00 0.00 0.00 86 1017.5
20171218082101 28 270 2.0 0.0 0.00 0.00 0.00 86 1017.5
20171218081600 28 270 1.0 0.0 0.00 0.00 0.00 86 1017.6
20171218081101 28 270 0.0 0.0 0.00 0.00 0.00 86 1017.3
20171218080601 28 247 0.0 0.0 0.00 0.00 0.00 86 1017.3
20171218080101 28 247 0.0 0.0 0.00 0.00 0.00 85 1017.3
20171218075601 28 225 0.0 0.0 0.00 0.00 0.00 85 1017.1
20171218075101 27 247 0.0 0.0 0.00 0.00 0.00 86 1017.1
20171218074601 27 247 0.0 0.0 0.00 0.00 0.00 86 1017.1
20171218074101 27 270 0.0 0.0 0.00 0.00 0.00 86 1017.2
20171218073601 27 270 0.0 0.0 0.00 0.00 0.00 86 1017.3
20171218073101 27 270 0.0 0.0 0.00 0.00 0.00 86 1017.2
20171218072601 27 270 0.0 0.0 0.00 0.00 0.00 86 1017.0
20171218072101 27 270 1.0 0.0 0.00 0.00 0.00 86 1017.1
20171218071601 27 292 1.0 0.0 0.00 0.00 0.00 86 1017.0
20171218071100 27 247 0.0 0.0 0.00 0.00 0.00 86 1017.0
20171218070602 27 270 0.0 0.0 0.00 0.00 0.00 86 1016.8
20171218070101 27 270 1.0 0.0 0.00 0.00 0.00 86 1016.8
20171218065601 27 247 0.0 0.0 0.00 0.00 0.00 86 1016.8
20171218065100 27 247 0.0 0.0 0.00 0.00 0.00 86 1016.8
20171218064601 27 270 2.0 0.0 0.00 0.00 0.00 86 1016.8
20171218064101 27 270 0.0 0.0 0.00 0.00 0.00 86 1016.8
20171218063601 27 270 0.0 0.0 0.00 0.00 0.00 86 1016.8
20171218063102 27 247 0.0 0.0 0.00 0.00 0.00 86 1016.8
20171218062601 27 270 3.0 0.0 0.00 0.00 0.00 86 1016.8
20171218062101 27 292 1.0 0.0 0.00 0.00 0.00 86 1016.8
20171218061601 27 315 1.0 0.0 0.00 0.00 0.00 86 1016.7
20171218061101 27 247 1.0 0.0 0.00 0.00 0.00 86 1016.5
20171218060101 27 270 1.0 0.0 0.00 0.00 0.00 86 1016.5
20171218055601 27 247 1.0 0.0 0.00 0.00 0.00 86 1016.5
20171218055101 27 247 1.0 0.0 0.00 0.00 0.00 86 1016.5
20171218054601 27 292 0.0 0.0 0.00 0.00 0.00 86 1016.4
20171218054101 27 270 0.0 0.0 0.00 0.00 0.00 86 1016.4
20171218053601 27 270 1.0 0.0 0.00 0.00 0.00 86 1016.4
20171218053101 27 247 2.0 0.0 0.00 0.00 0.00 86 1016.3
20171218052601 27 247 1.0 0.0 0.00 0.00 0.00 86 1016.3
20171218052101 27 270 0.0 0.0 0.00 0.00 0.00 86 1016.2
20171218051601 27 292 0.0 0.0 0.00 0.00 0.00 86 1016.2
20171218051101 28 292 1.0 0.0 0.00 0.00 0.00 86 1016.1
20171218050601 28 315 0.0 0.0 0.00 0.00 0.00 86 1016.1
20171218050102 28 270 0.0 0.0 0.00 0.00 0.00 86 1016.2
20171218045601 28 247 0.0 0.0 0.00 0.00 0.00 86 1016.1
20171218045101 28 247 0.0 0.0 0.00 0.00 0.00 86 1016.1
20171218044601 28 270 0.0 0.0 0.00 0.00 0.00 86 1016.2
20171218044101 28 247 1.0 0.0 0.00 0.00 0.00 86 1016.1
20171218043601 28 247 0.0 0.0 0.00 0.00 0.00 86 1016.0
20171218043101 28 247 0.0 0.0 0.00 0.00 0.00 86 1015.9
20171218042602 28 247 0.0 0.0 0.00 0.00 0.00 86 1016.0
20171218042101 28 247 1.0 0.0 0.00 0.00 0.00 86 1015.9
20171218041601 28 247 0.0 0.0 0.00 0.00 0.00 86 1015.9
20171218041102 28 247 0.0 0.0 0.00 0.00 0.00 86 1015.9
20171218040601 28 247 0.0 0.0 0.00 0.00 0.00 86 1015.8
20171218040101 28 247 0.0 0.0 0.00 0.00 0.00 86 1015.9
20171218035601 28 247 0.0 0.0 0.00 0.00 0.00 86 1015.8
20171218035101 28 270 0.0 0.0 0.00 0.00 0.00 86 1015.7
20171218034601 28 270 2.0 0.0 0.00 0.00 0.00 86 1015.7
20171218034059 28 292 1.0 0.0 0.00 0.00 0.00 86 1015.7
20171218033559 28 270 0.0 0.0 0.00 0.00 0.00 86 1015.7
20171218033058 28 270 1.0 0.0 0.00 0.00 0.00 86 1015.8
20171218032559 27 270 0.0 0.0 0.00 0.00 0.00 86 1015.7
20171218032059 27 292 0.0 0.0 0.00 0.00 0.00 86 1015.7
20171218031559 27 292 0.0 0.0 0.00 0.00 0.00 86 1015.7
20171218031059 27 292 1.0 0.0 0.00 0.00 0.00 87 1015.7
20171218030559 27 270 2.0 0.0 0.00 0.00 0.00 86 1015.6
20171218030059 27 292 2.0 0.0 0.00 0.00 0.00 87 1015.6
20171218025559 27 270 0.0 0.0 0.00 0.00 0.00 86 1015.6
20171218025059 27 270 0.0 0.0 0.00 0.00 0.00 87 1015.7
20171218024559 27 270 0.0 0.0 0.00 0.00 0.00 87 1015.6
20171218024059 27 270 0.0 0.0 0.00 0.00 0.00 87 1015.6
20171218023558 27 247 0.0 0.0 0.00 0.00 0.00 87 1015.5
20171218023059 27 247 0.0 0.0 0.00 0.00 0.00 87 1015.6
20171218022559 27 292 2.0 0.0 0.00 0.00 0.00 87 1015.6
20171218022059 27 247 0.0 0.0 0.00 0.00 0.00 87 1015.5
20171218021559 27 247 0.0 0.0 0.00 0.00 0.00 87 1015.4
20171218021059 27 247 0.0 0.0 0.00 0.00 0.00 87 1015.4
20171218020559 27 247 0.0 0.0 0.00 0.00 0.00 87 1015.3
20171218020059 27 247 0.0 0.0 0.00 0.00 0.00 87 1015.3
20171218015559 27 247 0.0 0.0 0.00 0.00 0.00 87 1015.3
20171218015059 27 247 0.0 0.0 0.00 0.00 0.00 87 1015.3
20171218014559 27 247 0.0 0.0 0.00 0.00 0.00 87 1015.3
20171218014059 27 247 0.0 0.0 0.00 0.00 0.00 87 1015.3
20171218013559 27 225 0.0 0.0 0.00 0.00 0.00 87 1015.3
20171218013059 27 225 0.0 0.0 0.00 0.00 0.00 87 1015.3
20171218012559 27 135 0.0 0.0 0.00 0.00 0.00 87 1015.3
20171218012059 27 112 0.0 0.0 0.00 0.00 0.00 87 1015.3
20171218011559 26 112 0.0 0.0 0.00 0.00 0.00 87 1015.3
20171218011059 26 112 0.0 0.0 0.00 0.00 0.00 87 1015.3
20171218010559 26 112 0.0 0.0 0.00 0.00 0.00 87 1015.3
20171218010059 26 112 0.0 0.0 0.00 0.00 0.00 87 1015.3
20171218005559 26 112 0.0 0.0 0.00 0.00 0.00 87 1015.4
20171218005059 26 112 0.0 0.0 0.00 0.00 0.00 87 1015.4
20171218004559 26 112 0.0 0.0 0.00 0.00 0.00 87 1015.3
20171218004059 26 112 0.0 0.0 0.00 0.00 0.00 87 1015.3
20171218003600 26 112 0.0 0.0 0.00 0.00 0.00 87 1015.3
20171218003059 26 112 0.0 0.0 0.00 0.00 0.00 87 1015.3
20171218002559 26 112 0.0 0.0 0.00 0.00 0.00 87 1015.3
20171218002059 26 112 1.0 0.0 0.00 0.00 0.00 87 1015.3
20171218001559 27 157 0.0 0.0 0.00 0.00 0.00 87 1015.2
20171218001100 27 270 0.0 0.0 0.00 0.00 0.00 87 1015.2
20171218000600 27 270 0.0 0.0 0.00 0.00 0.00 87 1015.2
20171218000059 27 270 0.0 0.0 0.00 0.00 0.00 87 1015.2
20171217235559 27 270 0.0 0.0 0.00 0.00 0.00 87 1015.1
20171217235059 27 270 0.0 0.0 0.00 0.00 0.00 87 1015.1
20171217234559 27 270 0.0 0.0 0.00 0.00 0.00 86 1015.1
20171217234100 27 270 0.0 0.0 0.00 0.00 0.00 86 1015.1
20171217233559 28 270 0.0 0.0 0.00 0.00 0.00 86 1015.1
20171217233059 28 270 0.0 0.0 0.00 0.00 0.00 86 1015.1
20171217232600 28 270 0.0 0.0 0.00 0.00 0.00 86 1015.1
20171217232059 28 270 1.0 0.0 0.00 0.00 0.00 86 1015.1
20171217231600 28 270 1.0 0.0 0.00 0.00 0.00 86 1015.1
20171217231100 28 270 1.0 0.0 0.00 0.00 0.00 86 1015.1
20171217230559 28 247 0.0 0.0 0.00 0.00 0.00 86 1015.1
20171217230059 28 247 0.0 0.0 0.00 0.00 0.00 86 1015.1
20171217225600 28 247 0.0 0.0 0.00 0.00 0.00 86 1015.0
20171217225100 29 247 0.0 0.0 0.00 0.00 0.00 86 1015.0
20171217224600 29 247 0.0 0.0 0.00 0.00 0.00 86 1015.0
20171217224059 29 247 0.0 0.0 0.00 0.00 0.00 86 1015.0
20171217223559 29 247 0.0 0.0 0.00 0.00 0.00 86 1015.0
20171217223100 29 247 0.0 0.0 0.00 0.00 0.00 86 1015.0
20171217222600 28 247 0.0 0.0 0.00 0.00 0.00 86 1014.9
20171217222100 29 247 0.0 0.0 0.00 0.00 0.00 86 1014.9
20171217221559 29 247 0.0 0.0 0.00 0.00 0.00 86 1014.8
20171217221059 29 247 0.0 0.0 0.00 0.00 0.00 86 1014.9
20171217220600 29 247 0.0 0.0 0.00 0.00 0.00 86 1014.8
20171217220100 29 247 0.0 0.0 0.00 0.00 0.00 86 1014.8
20171217215559 29 247 0.0 0.0 0.00 0.00 0.00 87 1014.8
20171217215059 29 247 0.0 0.0 0.00 0.00 0.00 86 1014.8
20171217214559 29 247 0.0 0.0 0.00 0.00 0.00 86 1014.7
20171217214100 29 247 0.0 0.0 0.00 0.00 0.00 87 1014.8
20171217213600 30 247 0.0 0.0 0.00 0.00 0.00 87 1014.7
20171217213100 30 247 0.0 0.0 0.00 0.00 0.00 87 1014.7
20171217212600 30 270 0.0 0.0 0.00 0.00 0.00 87 1014.5
20171217212100 30 270 0.0 0.0 0.00 0.00 0.00 87 1014.5
20171217211600 30 270 0.0 0.0 0.00 0.00 0.00 87 1014.5
20171217211059 30 270 0.0 0.0 0.00 0.00 0.00 87 1014.5
20171217210600 30 270 0.0 0.0 0.00 0.00 0.00 87 1014.5
20171217210100 30 270 0.0 0.0 0.00 0.00 0.00 87 1014.5
20171217205600 30 270 1.0 0.0 0.00 0.00 0.00 87 1014.4
20171217205059 30 270 1.0 0.0 0.00 0.00 0.00 87 1014.4
20171217204600 30 270 0.0 0.0 0.00 0.00 0.00 87 1014.5
20171217204100 30 270 0.0 0.0 0.00 0.00 0.00 87 1014.4
20171217203559 30 270 1.0 0.0 0.00 0.00 0.00 87 1014.4
20171217203100 30 247 1.0 0.0 0.00 0.00 0.00 87 1014.3
20171217202600 30 247 1.0 0.0 0.00 0.00 0.00 87 1014.2
20171217202100 30 270 2.0 0.0 0.00 0.00 0.00 86 1014.2
20171217201600 30 270 2.0 0.0 0.00 0.00 0.00 86 1014.2
20171217201059 30 247 1.0 0.0 0.00 0.00 0.00 86 1014.0
20171217200600 30 247 1.0 0.0 0.00 0.00 0.00 86 1014.1
20171217200100 30 247 1.0 0.0 0.00 0.00 0.00 86 1014.0
20171217195600 30 270 1.0 0.0 0.00 0.00 0.00 86 1014.0
20171217195100 30 270 1.0 0.0 0.00 0.00 0.00 86 1013.9
20171217194600 31 270 1.0 0.0 0.00 0.00 0.00 86 1013.8
20171217194100 31 270 2.0 0.0 0.00 0.00 0.00 86 1013.8
20171217193600 31 247 1.0 0.0 0.00 0.00 0.00 86 1013.7
20171217193100 31 135 0.0 0.0 0.00 0.00 0.00 86 1013.6
20171217192600 31 135 0.0 0.0 0.00 0.00 0.00 86 1013.6
20171217192100 31 135 0.0 0.0 0.00 0.00 0.00 86 1013.6
20171217191600 31 135 1.0 0.0 0.00 0.00 0.00 86 1013.5
20171217191100 31 90 0.0 0.0 0.00 0.00 0.00 86 1013.6
20171217190600 31 90 0.0 0.0 0.00 0.00 0.00 86 1013.6
20171217190100 31 90 0.0 0.0 0.00 0.00 0.00 86 1013.6
20171217185600 31 90 0.0 0.0 0.00 0.00 0.00 86 1013.6
20171217185100 31 90 0.0 0.0 0.00 0.00 0.00 86 1013.5
20171217184600 31 90 0.0 0.0 0.00 0.00 0.00 86 1013.5
20171217184100 31 90 0.0 0.0 0.00 0.00 0.00 86 1013.5
20171217183600 31 90 0.0 0.0 0.00 0.00 0.00 86 1013.5
20171217183100 31 90 0.0 0.0 0.00 0.00 0.00 86 1013.4
20171217182600 31 112 1.0 0.0 0.00 0.00 0.00 86 1013.4
20171217182100 31 112 1.0 0.0 0.00 0.00 0.00 86 1013.3
20171217181600 31 135 1.0 0.0 0.00 0.00 0.00 86 1013.3
20171217181100 31 202 0.0 0.0 0.00 0.00 0.00 86 1013.3
20171217180600 31 225 0.0 0.0 0.00 0.00 0.00 86 1013.2
20171217180100 31 135 1.0 0.0 0.00 0.00 0.00 86 1013.2
20171217175600 32 135 0.0 0.0 0.00 0.00 0.00 86 1013.1
20171217175100 32 135 0.0 0.0 0.00 0.00 0.00 86 1013.1
20171217174600 32 135 0.0 0.0 0.00 0.00 0.00 86 1013.1
20171217174100 32 135 0.0 0.0 0.00 0.00 0.00 86 1013.1
20171217173601 32 135 0.0 0.0 0.00 0.00 0.00 86 1013.0
20171217173101 32 135 0.0 0.0 0.00 0.00 0.00 86 1012.9
20171217172600 32 135 0.0 0.0 0.00 0.00 0.00 86 1012.9
20171217172100 32 135 0.0 0.0 0.00 0.00 0.00 86 1012.9
20171217171601 32 135 0.0 0.0 0.00 0.00 0.00 86 1012.8
20171217171100 32 135 0.0 0.0 0.00 0.00 0.00 86 1012.8
20171217170600 32 135 0.0 0.0 0.00 0.00 0.00 86 1012.8
20171217170100 32 135 0.0 0.0 0.00 0.00 0.00 85 1012.8
20171217165601 32 135 1.0 0.0 0.00 0.00 0.00 85 1012.7
20171217165101 32 135 1.0 0.0 0.00 0.00 0.00 85 1012.6
20171217164600 32 112 1.0 0.0 0.00 0.00 0.00 85 1012.7
20171217164100 32 225 1.0 0.0 0.00 0.00 0.00 85 1012.5
20171217163600 32 247 0.0 0.0 0.00 0.00 0.00 85 1012.4
20171217163100 32 247 0.0 0.0 0.00 0.00 0.00 85 1012.4
20171217162600 32 247 0.0 0.0 0.00 0.00 0.00 85 1012.3
20171217162100 32 247 0.0 0.0 0.00 0.00 0.00 85 1012.2
20171217161600 32 247 1.0 0.0 0.00 0.00 0.00 85 1012.2
20171217161100 32 247 0.0 0.0 0.00 0.00 0.00 85 1012.1
20171217160600 32 247 0.0 0.0 0.00 0.00 0.00 85 1012.0
20171217160101 32 225 0.0 0.0 0.00 0.00 0.00 85 1012.0
20171217155601 32 180 0.0 0.0 0.00 0.00 0.00 85 1011.9
20171217155101 32 135 0.0 0.0 0.00 0.00 0.00 85 1011.9
20171217154601 32 135 0.0 0.0 0.00 0.00 0.00 85 1011.9
20171217154100 32 135 0.0 0.0 0.00 0.00 0.00 84 1011.8
20171217153600 32 112 1.0 0.0 0.00 0.00 0.00 84 1011.8
20171217153100 32 112 0.0 0.0 0.00 0.00 0.00 84 1011.7
20171217152600 32 112 0.0 0.0 0.00 0.00 0.00 84 1011.7
20171217152101 32 112 0.0 0.0 0.00 0.00 0.00 84 1011.6
20171217151601 32 112 0.0 0.0 0.00 0.00 0.00 84 1011.5
20171217151100 32 112 0.0 0.0 0.00 0.00 0.00 83 1011.5
20171217150600 33 112 0.0 0.0 0.00 0.00 0.00 83 1011.5
20171217150101 33 135 1.0 0.0 0.00 0.00 0.00 83 1011.6
20171217145601 33 157 0.0 0.0 0.00 0.00 0.00 83 1011.5
20171217145101 33 157 0.0 0.0 0.00 0.00 0.00 83 1011.3
20171217144600 33 157 1.0 0.0 0.00 0.00 0.00 83 1011.2
20171217144100 33 157 2.0 0.0 0.00 0.00 0.00 83 1011.2
20171217143601 33 157 1.0 0.0 0.00 0.00 0.00 83 1011.1